Location: Dana
(41.8364°N, 106.7042°W)
Time: 13:43:44
(UTC+00:00)

Injun/Solrad 3 - Pass Details

Date: 14 May 2026
Orbit: 867 x 989 km, 66.8° (Epoch: 7 June)

Event Time Altitude Azimuth Distance (km) Brightness Sun altitude
Rises 08:51:32 0° 321° (NW) 3,690 11.3 -24.5°
Reaches altitude 10° 08:54:19 10° 313° (NW) 2,747 10.5 -24.3°
Enters shadow 08:59:22 33° 263° (W) 1,591 8.8 -23.8°
Maximum altitude 09:00:00 34° 251° (WSW) 1,570 - -23.7°
Drops below altitude 10° 09:05:40 10° 189° (S) 2,732 - -23.2°
Sets 09:08:26 0° 180° (S) 3,668 - -22.9°
